K8MUD Weather Reports


Display with metric or nautical units.
time (UTC)temp
F
wind
direction
speed
MPH
gust
MPH
rain 1hr
in
rain 24hr
in
rain mn
in
humidity
%
barometer
mb
20260905053502 70 0 0.0 0.0 0.00 0.11 0.00 91 1013.7
20260905053451 70 0 0.0 0.0 0.00 0.11 0.00 91 1013.8
20260905053003 70 0 0.0 0.0 0.00 0.11 0.00 91 1013.7
20260905052951 70 0 0.0 0.0 0.00 0.11 0.00 91 1013.7
20260905052503 70 0 0.0 0.0 0.00 0.11 0.00 91 1013.6
20260905052451 70 0 0.0 0.0 0.00 0.11 0.00 91 1013.6
20260905052003 70 0 0.0 0.0 0.00 0.11 0.00 91 1013.6
20260905051951 70 0 0.0 0.0 0.00 0.11 0.00 91 1013.6
20260905051503 70 0 0.0 0.0 0.00 0.11 0.00 90 1013.7
20260905051451 70 0 0.0 0.0 0.00 0.11 0.00 90 1013.7
20260905051003 70 0 0.0 0.0 0.00 0.11 0.00 90 1013.9
20260905050951 70 0 0.0 0.0 0.00 0.11 0.00 90 1013.9
20260905050502 70 0 0.0 0.0 0.00 0.11 0.00 90 1013.9
20260905050451 70 0 0.0 0.0 0.00 0.11 0.00 90 1013.9
20260905050006 70 0 0.0 0.0 0.00 0.11 0.00 90 1014.0
20260905045951 70 0 0.0 0.0 0.00 0.11 0.00 90 1014.0
20260905045524 70 0 0.0 0.0 0.00 0.11 0.00 90 1014.0
20260905045451 70 0 0.0 0.0 0.00 0.11 0.00 90 1014.0
20260905045024 70 0 0.0 0.0 0.00 0.11 0.00 90 1014.0
20260905044951 70 0 0.0 0.0 0.00 0.11 0.00 90 1014.0
20260905044503 71 0 0.0 0.0 0.00 0.11 0.00 90 1013.9
20260905044450 71 0 0.0 0.0 0.00 0.11 0.00 90 1014.0
20260905044003 71 0 0.0 0.0 0.00 0.11 0.00 89 1014.0
20260905043950 71 0 0.0 0.0 0.00 0.11 0.00 89 1014.1
20260905043527 71 0 0.0 0.0 0.00 0.11 0.00 89 1014.0
20260905043450 71 0 0.0 0.0 0.00 0.11 0.00 89 1014.0
20260905043003 71 0 0.0 0.0 0.00 0.11 0.00 89 1014.0
20260905042950 71 0 0.0 0.0 0.00 0.11 0.00 89 1014.1
20260905042504 71 0 0.0 0.0 0.00 0.11 0.00 89 1014.0
20260905042450 71 0 0.0 0.0 0.00 0.11 0.00 89 1014.0
20260905042003 71 65 0.0 2.0 0.00 0.11 0.00 89 1014.1
20260905041950 71 65 0.0 2.0 0.00 0.11 0.00 89 1014.1
20260905041503 71 65 0.0 2.0 0.00 0.11 0.00 89 1014.1
20260905041450 71 65 0.0 2.0 0.00 0.11 0.00 89 1014.1
20260905041003 72 39 0.0 2.0 0.00 0.11 0.00 89 1014.1
20260905040950 72 27 0.0 2.0 0.00 0.11 0.00 89 1014.1
20260905040503 72 11 0.0 2.0 0.00 0.11 0.00 89 1014.2
20260905040450 72 10 0.0 2.0 0.00 0.11 0.00 89 1014.2
20260905040024 72 5 0.0 2.0 0.00 0.11 0.00 89 1014.3
20260905035950 72 5 0.0 2.0 0.00 0.11 0.11 89 1014.3
20260905035503 72 5 0.0 2.0 0.00 0.11 0.11 89 1014.3
20260905035450 72 5 0.0 2.0 0.00 0.11 0.11 89 1014.3
20260905035003 72 6 0.0 2.0 0.00 0.11 0.11 89 1014.3
20260905034950 72 23 0.0 1.0 0.00 0.11 0.11 89 1014.3
20260905034503 72 23 0.0 1.0 0.00 0.11 0.11 89 1014.3
20260905034450 72 22 0.0 1.0 0.00 0.11 0.11 89 1014.3
20260905034024 72 22 0.0 2.0 0.00 0.11 0.11 89 1014.5
20260905033950 72 22 0.0 2.0 0.00 0.11 0.11 89 1014.5
20260905033527 72 22 1.0 3.0 0.00 0.11 0.11 89 1014.5
20260905033420 72 22 1.0 3.0 0.00 0.11 0.11 89 1014.5
20260905033024 72 22 1.0 3.0 0.00 0.11 0.11 89 1014.6
20260905032920 72 22 1.0 3.0 0.00 0.11 0.11 89 1014.6
20260905032503 72 25 1.0 3.0 0.00 0.11 0.11 89 1014.6
20260905032420 72 25 1.0 3.0 0.00 0.11 0.11 89 1014.6
20260905032006 72 29 1.0 3.0 0.00 0.11 0.11 89 1014.5
20260905031920 72 36 1.0 4.0 0.00 0.11 0.11 89 1014.6
20260905031503 72 342 1.0 4.0 0.00 0.11 0.11 89 1014.5
20260905031419 72 340 1.0 5.0 0.00 0.11 0.11 89 1014.5
20260905031024 73 349 2.0 6.0 0.00 0.11 0.11 89 1014.5
20260905030919 73 345 1.0 6.0 0.00 0.11 0.11 89 1014.5
20260905030503 73 13 1.0 6.0 0.00 0.11 0.11 89 1014.6
20260905030419 73 31 1.0 6.0 0.00 0.11 0.11 90 1014.6
20260905030003 73 84 0.0 2.0 0.00 0.11 0.11 89 1014.6
20260905025919 73 84 0.0 2.0 0.00 0.11 0.11 89 1014.5
20260905025503 73 86 0.0 2.0 0.00 0.11 0.11 89 1014.5
20260905025419 73 86 0.0 2.0 0.00 0.11 0.11 89 1014.5
20260905025004 73 86 0.0 2.0 0.00 0.11 0.11 89 1014.4
20260905024919 73 86 0.0 2.0 0.00 0.11 0.11 89 1014.4
20260905024524 73 86 0.0 2.0 0.00 0.11 0.11 89 1014.5
20260905024419 73 86 0.0 2.0 0.00 0.11 0.11 89 1014.5
20260905024003 73 86 0.0 1.0 0.00 0.11 0.11 89 1014.4
20260905023919 73 86 0.0 1.0 0.00 0.11 0.11 89 1014.4
20260905023503 73 86 0.0 1.0 0.00 0.11 0.11 89 1014.4
20260905023419 73 86 0.0 2.0 0.00 0.11 0.11 89 1014.4
20260905023003 73 86 0.0 2.0 0.00 0.11 0.11 89 1014.4
20260905022919 73 86 0.0 2.0 0.00 0.11 0.11 89 1014.4
20260905022524 73 86 0.0 2.0 0.00 0.11 0.11 89 1014.4
20260905022419 73 0 0.0 0.0 0.00 0.11 0.11 89 1014.4
20260905022003 73 0 0.0 0.0 0.00 0.11 0.11 89 1014.4
20260905021919 73 0 0.0 0.0 0.00 0.11 0.11 89 1014.4
20260905021503 74 0 0.0 0.0 0.00 0.11 0.11 89 1014.4
20260905021419 74 0 0.0 0.0 0.00 0.11 0.11 89 1014.4
20260905021006 74 0 0.0 0.0 0.00 0.11 0.11 89 1014.5
20260905020919 74 0 0.0 0.0 0.00 0.11 0.11 89 1014.5
20260905020506 74 0 0.0 0.0 0.00 0.11 0.11 88 1014.6
20260905020419 74 0 0.0 0.0 0.00 0.11 0.11 88 1014.6
20260905020004 74 0 0.0 0.0 0.00 0.11 0.11 88 1014.6
20260905015919 74 0 0.0 0.0 0.00 0.11 0.11 89 1014.6
20260905015503 74 86 0.0 1.0 0.00 0.11 0.11 88 1014.5
20260905015419 74 86 0.0 1.0 0.00 0.11 0.11 88 1014.5
20260905015003 74 86 0.0 3.0 0.00 0.11 0.11 89 1014.6
20260905014918 74 87 0.0 3.0 0.00 0.11 0.11 89 1014.6
20260905014504 74 84 0.0 3.0 0.00 0.11 0.11 89 1014.6
20260905014418 74 82 0.0 3.0 0.00 0.11 0.11 88 1014.7
20260905014003 74 50 1.0 5.0 0.00 0.11 0.11 88 1014.7
20260905013918 74 45 1.0 5.0 0.00 0.11 0.11 88 1014.6
20260905013503 74 51 1.0 5.0 0.00 0.11 0.11 88 1014.5
20260905013418 74 54 1.0 5.0 0.00 0.11 0.11 88 1014.6
20260905013007 74 65 1.0 5.0 0.00 0.11 0.11 88 1014.5
20260905012918 74 69 1.0 4.0 0.00 0.11 0.11 88 1014.5
20260905012503 74 72 1.0 7.0 0.00 0.11 0.11 87 1014.5
20260905012418 74 68 1.0 7.0 0.00 0.11 0.11 87 1014.6
20260905012003 74 68 2.0 7.0 0.00 0.11 0.11 87 1014.5
20260905011918 74 66 2.0 7.0 0.00 0.11 0.11 87 1014.5
20260905011503 75 76 1.0 6.0 0.00 0.11 0.11 87 1014.4
20260905011418 75 81 1.0 6.0 0.00 0.11 0.11 87 1014.5
20260905011003 75 88 1.0 9.0 0.00 0.11 0.11 87 1014.5
20260905010918 75 87 1.0 9.0 0.00 0.11 0.11 87 1014.5
20260905010503 75 79 1.0 9.0 0.00 0.11 0.11 86 1014.5
20260905010418 75 76 1.0 9.0 0.00 0.11 0.11 86 1014.5
20260905010007 76 72 1.0 6.0 0.00 0.11 0.11 86 1014.5
20260905005918 76 77 1.0 6.0 0.00 0.11 0.11 86 1014.5
20260905005503 76 83 1.0 6.0 0.00 0.11 0.11 86 1014.3
20260905005418 76 86 1.0 6.0 0.00 0.11 0.11 86 1014.3
20260905005022 76 83 1.0 6.0 0.00 0.11 0.11 86 1014.3
20260905004848 76 79 1.0 4.0 0.00 0.11 0.11 86 1014.3
20260905004501 77 80 1.0 4.0 0.00 0.11 0.11 86 1014.2
20260905004347 77 80 1.0 4.0 0.00 0.11 0.11 86 1014.2
20260905004001 77 85 0.0 3.0 0.00 0.11 0.11 85 1014.3
20260905003847 77 82 0.0 3.0 0.00 0.11 0.11 85 1014.2
20260905003525 77 76 0.0 3.0 0.00 0.11 0.11 85 1014.2
20260905003347 77 76 0.0 3.0 0.00 0.11 0.11 85 1014.1
20260905003001 77 76 0.0 3.0 0.00 0.11 0.11 85 1014.1
20260905002847 77 69 0.0 2.0 0.00 0.11 0.11 85 1014.1
20260905002501 77 69 0.0 1.0 0.00 0.11 0.11 85 1014.0
20260905002347 78 69 0.0 1.0 0.00 0.11 0.11 85 1014.0
20260905002005 78 69 0.0 1.0 0.00 0.11 0.11 84 1014.0
20260905001847 78 69 0.0 1.0 0.00 0.11 0.11 84 1014.0
20260905001501 78 69 0.0 3.0 0.00 0.11 0.11 84 1013.9
20260905001347 78 67 1.0 3.0 0.00 0.11 0.11 84 1013.9
20260905001001 78 65 1.0 5.0 0.00 0.11 0.11 84 1013.8
20260905000847 78 64 1.0 5.0 0.00 0.11 0.11 83 1013.7
20260905000501 78 60 0.0 5.0 0.00 0.11 0.11 83 1013.7
20260905000348 78 41 0.0 5.0 0.00 0.11 0.11 83 1013.7
20260905000023 78 351 0.0 2.0 0.00 0.11 0.11 83 1013.7
20260904235847 79 342 0.0 2.0 0.00 0.11 0.11 82 1013.7
20260904235501 79 338 0.0 2.0 0.00 0.11 0.11 81 1013.6
20260904235347 79 305 0.0 3.0 0.00 0.11 0.11 81 1013.6
20260904235004 79 304 1.0 3.0 0.00 0.11 0.11 80 1013.7
20260904234847 79 304 1.0 3.0 0.00 0.11 0.11 80 1013.6
20260904234502 79 304 1.0 3.0 0.00 0.11 0.11 79 1013.6
20260904234347 79 304 1.0 3.0 0.00 0.11 0.11 80 1013.7
20260904234022 79 304 1.0 3.0 0.00 0.11 0.11 79 1013.6
20260904233846 79 304 0.0 3.0 0.00 0.11 0.11 80 1013.6
20260904233501 79 304 0.0 3.0 0.00 0.11 0.11 80 1013.6
20260904233346 79 304 0.0 3.0 0.00 0.11 0.11 80 1013.6
20260904233022 79 304 1.0 3.0 0.00 0.11 0.11 80 1013.6
20260904232846 79 304 1.0 3.0 0.00 0.11 0.11 80 1013.6
20260904232502 79 304 2.0 4.0 0.00 0.11 0.11 80 1013.5
20260904232346 79 304 2.0 4.0 0.00 0.11 0.11 80 1013.5
20260904232001 79 305 2.0 4.0 0.00 0.11 0.11 79 1013.5
20260904231846 79 305 1.0 4.0 0.00 0.11 0.11 79 1013.4
20260904231502 79 306 1.0 4.0 0.00 0.11 0.11 79 1013.3
20260904231346 79 308 1.0 4.0 0.00 0.11 0.11 80 1013.3
20260904231001 79 309 1.0 4.0 0.00 0.11 0.11 79 1013.3
20260904230846 79 309 2.0 4.0 0.00 0.11 0.11 79 1013.2
20260904230525 79 310 2.0 4.0 0.00 0.11 0.11 79 1013.2
20260904230346 79 310 2.0 4.0 0.00 0.11 0.11 79 1013.1
20260904230002 79 310 1.0 4.0 0.00 0.11 0.11 79 1013.1
20260904225846 79 310 2.0 5.0 0.00 0.11 0.11 80 1013.1
20260904225501 79 309 2.0 5.0 0.00 0.11 0.11 79 1013.1
20260904225346 79 309 2.0 5.0 0.00 0.11 0.11 80 1013.2
20260904225004 79 309 2.0 5.0 0.00 0.11 0.11 79 1013.2
20260904224846 79 310 1.0 4.0 0.00 0.11 0.11 79 1013.2
20260904224501 79 310 1.0 4.0 0.00 0.11 0.11 79 1013.1
20260904224346 79 310 1.0 4.0 0.00 0.11 0.11 79 1013.1
20260904224001 79 310 1.0 4.0 0.00 0.11 0.11 79 1013.1
20260904223846 79 310 1.0 4.0 0.00 0.11 0.11 79 1013.2
20260904223504 79 310 1.0 3.0 0.00 0.11 0.11 79 1013.2
20260904223345 79 310 2.0 3.0 0.00 0.11 0.11 79 1013.2
20260904223001 79 308 2.0 7.0 0.00 0.11 0.11 79 1013.1
20260904222845 79 311 2.0 7.0 0.00 0.11 0.11 80 1013.1
20260904222502 79 315 2.0 7.0 0.00 0.11 0.11 79 1013.2
20260904222345 79 317 2.0 7.0 0.00 0.11 0.11 79 1013.1
20260904222001 79 316 2.0 4.0 0.00 0.11 0.11 79 1013.2
20260904221845 79 311 2.0 4.0 0.00 0.11 0.11 79 1013.1
20260904221501 79 301 3.0 6.0 0.00 0.11 0.11 79 1013.1
20260904221345 79 296 3.0 8.0 0.00 0.11 0.11 79 1013.1
20260904221023 79 299 3.0 8.0 0.00 0.11 0.11 79 1013.2
20260904220845 79 297 3.0 8.0 0.00 0.11 0.11 79 1013.3
20260904220501 79 295 3.0 8.0 0.00 0.11 0.11 79 1013.2
20260904220345 80 296 3.0 8.0 0.00 0.11 0.11 79 1013.2
20260904220002 79 294 3.0 8.0 0.00 0.11 0.11 80 1013.2
20260904215845 79 297 3.0 8.0 0.00 0.11 0.11 79 1013.2
20260904215502 80 298 3.0 8.0 0.00 0.11 0.11 79 1013.2
20260904215345 80 296 3.0 8.0 0.00 0.11 0.11 79 1013.1
20260904215001 79 290 3.0 8.0 0.00 0.11 0.11 80 1013.0
20260904214845 79 286 3.0 8.0 0.00 0.11 0.11 79 1013.1
20260904214501 79 300 3.0 8.0 0.00 0.11 0.11 80 1013.0
20260904214345 79 306 3.0 8.0 0.00 0.11 0.11 80 1013.0
20260904214002 79 311 4.0 8.0 0.00 0.11 0.11 80 1013.0
20260904213845 79 316 4.0 8.0 0.00 0.11 0.11 80 1013.0
20260904213502 79 307 4.0 8.0 0.00 0.11 0.11 80 1013.0
20260904213345 79 303 4.0 8.0 0.00 0.11 0.11 79 1013.0
20260904213001 79 297 4.0 8.0 0.00 0.11 0.11 80 1012.9
20260904212845 79 295 3.0 8.0 0.00 0.11 0.11 80 1012.8
20260904212505 79 300 3.0 8.0 0.00 0.11 0.11 80 1012.7
20260904212344 79 302 3.0 8.0 0.00 0.11 0.11 80 1012.5
20260904212001 79 307 3.0 7.0 0.00 0.11 0.11 81 1012.5
20260904211844 79 304 3.0 8.0 0.00 0.11 0.11 80 1012.5
20260904211522 79 299 3.0 8.0 0.00 0.11 0.11 80 1012.6
20260904211344 79 299 4.0 9.0 0.00 0.11 0.11 80 1012.6
20260904211002 79 297 5.0 9.0 0.00 0.11 0.11 80 1012.6
20260904210844 79 296 4.0 9.0 0.00 0.11 0.11 80 1012.6
20260904210502 78 302 5.0 9.0 0.00 0.11 0.11 80 1012.6
20260904210344 78 306 4.0 9.0 0.00 0.11 0.11 81 1012.4
20260904210004 78 316 3.0 8.0 0.00 0.11 0.11 81 1012.2
20260904205844 78 322 4.0 8.0 0.00 0.11 0.11 81 1012.2
20260904205523 78 325 4.0 10.0 0.00 0.11 0.11 81 1012.3
20260904205344 78 318 4.0 10.0 0.00 0.11 0.11 81 1012.3
20260904205002 78 316 3.0 10.0 0.00 0.11 0.11 80 1012.3
20260904204844 78 310 3.0 10.0 0.00 0.12 0.11 80 1012.4
20260904204501 78 307 3.0 8.0 0.00 0.12 0.11 81 1012.4
20260904204344 78 313 3.0 5.0 0.00 0.12 0.11 81 1012.4
20260904204002 78 320 3.0 8.0 0.00 0.12 0.11 81 1012.2
20260904203844 78 321 4.0 8.0 0.00 0.13 0.11 81 1012.2
20260904203501 78 318 5.0 10.0 0.00 0.14 0.11 81 1012.1
20260904203344 78 318 4.0 10.0 0.00 0.15 0.11 80 1012.2
20260904203002 79 311 4.0 10.0 0.00 0.18 0.11 80 1012.3
20260904202844 79 296 4.0 10.0 0.00 0.23 0.11 80 1012.3
20260904202523 79 282 3.0 10.0 0.00 0.36 0.11 80 1012.3
20260904202344 79 271 3.0 8.0 0.00 0.51 0.11 80 1012.4
20260904202004 79 283 3.0 8.0 0.00 0.69 0.11 80 1012.5
20260904201844 79 303 4.0 8.0 0.00 0.73 0.11 81 1012.6
20260904201523 79 303 4.0 10.0 0.00 0.75 0.11 80 1012.8
20260904201344 79 302 3.0 10.0 0.00 0.77 0.11 80 1012.7
20260904201001 79 287 3.0 10.0 0.00 0.77 0.11 80 1012.8
20260904200843 79 269 2.0 10.0 0.00 0.77 0.11 80 1012.8
20260904200502 79 268 2.0 7.0 0.00 0.77 0.11 80 1012.8
20260904200343 79 274 3.0 7.0 0.00 0.77 0.11 80 1012.9
20260904200026 79 288 3.0 8.0 0.00 0.77 0.11 80 1012.9
20260904195843 79 295 3.0 8.0 0.00 0.77 0.11 80 1012.9
20260904195502 79 296 2.0 8.0 0.00 0.77 0.11 80 1012.9
20260904195343 78 300 2.0 8.0 0.00 0.77 0.11 80 1012.9
20260904195002 78 284 1.0 5.0 0.00 0.77 0.11 81 1013.0
20260904194843 78 270 2.0 7.0 0.00 0.77 0.11 81 1012.9
20260904194502 78 265 2.0 7.0 0.00 0.77 0.11 81 1012.9
20260904194343 78 271 3.0 7.0 0.00 0.77 0.11 81 1013.0
20260904194022 78 275 3.0 7.0 0.00 0.77 0.11 81 1013.0
20260904193843 78 281 3.0 7.0 0.00 0.77 0.11 81 1013.1
20260904193501 78 287 3.0 9.0 0.00 0.77 0.11 81 1013.2
20260904193343 78 286 3.0 9.0 0.00 0.77 0.11 81 1013.2
20260904193002 78 287 2.0 9.0 0.00 0.77 0.11 81 1013.2
20260904192843 78 284 2.0 9.0 0.00 0.77 0.11 81 1013.2
20260904192501 78 257 2.0 7.0 0.00 0.77 0.11 81 1013.2
20260904192343 78 261 3.0 7.0 0.00 0.77 0.11 81 1013.2
20260904192001 78 255 3.0 7.0 0.00 0.77 0.11 81 1013.2
20260904191843 78 262 4.0 9.0 0.00 0.77 0.11 81 1013.3
20260904191502 78 275 3.0 9.0 0.00 0.77 0.11 81 1013.4
20260904191343 78 268 3.0 9.0 0.00 0.77 0.11 81 1013.4
20260904191002 78 265 3.0 9.0 0.00 0.77 0.11 81 1013.4
20260904190843 78 260 3.0 10.0 0.00 0.77 0.11 81 1013.4
20260904190522 78 265 4.0 10.0 0.00 0.77 0.11 81 1013.4
20260904190343 78 270 4.0 10.0 0.00 0.77 0.11 82 1013.5
20260904190001 78 274 4.0 10.0 0.00 0.77 0.11 82 1013.5
20260904185843 78 280 3.0 8.0 0.00 0.77 0.11 83 1013.4
20260904185502 77 282 3.0 7.0 0.00 0.77 0.11 84 1013.5
20260904185342 77 280 3.0 7.0 0.00 0.77 0.11 84 1013.4
20260904185001 77 272 2.0 7.0 0.00 0.77 0.11 84 1013.5
20260904184842 77 264 3.0 7.0 0.00 0.77 0.11 85 1013.5
20260904184501 77 263 3.0 8.0 0.00 0.77 0.11 85 1013.6
20260904184342 77 263 3.0 8.0 0.00 0.77 0.11 85 1013.5
20260904184002 76 264 3.0 8.0 0.00 0.77 0.11 85 1013.5
20260904183842 76 265 3.0 8.0 0.00 0.77 0.11 85 1013.6
20260904183523 76 263 3.0 8.0 0.00 0.77 0.11 86 1013.6
20260904183342 76 266 3.0 8.0 0.00 0.77 0.11 86 1013.7
20260904183001 76 273 3.0 8.0 0.00 0.77 0.11 87 1013.8
20260904182842 76 272 3.0 8.0 0.00 0.77 0.11 87 1013.7
20260904182501 76 268 3.0 7.0 0.00 0.77 0.11 88 1013.7
20260904182342 76 262 3.0 7.0 0.00 0.77 0.11 88 1013.9
20260904182002 76 259 3.0 7.0 0.00 0.77 0.11 88 1013.9
20260904181842 76 263 3.0 7.0 0.00 0.77 0.11 89 1013.8
20260904181501 76 250 2.0 6.0 0.00 0.77 0.11 89 1013.7
20260904181342 76 239 3.0 6.0 0.00 0.77 0.11 90 1013.8
20260904181023 76 227 3.0 7.0 0.00 0.77 0.11 90 1013.7
20260904180842 75 216 3.0 7.0 0.00 0.77 0.11 90 1013.7
20260904180502 75 217 2.0 7.0 0.00 0.77 0.11 90 1013.7
20260904180342 76 221 2.0 7.0 0.00 0.77 0.11 90 1013.7
20260904180001 75 227 2.0 7.0 0.00 0.77 0.11 93 1013.7
20260904175842 75 228 2.0 7.0 0.00 0.77 0.11 93 1013.8
20260904175502 75 236 3.0 8.0 0.00 0.77 0.11 93 1014.0
20260904175342 75 232 3.0 8.0 0.00 0.77 0.11 93 1013.9
20260904175002 74 222 3.0 8.0 0.00 0.77 0.11 93 1013.9
20260904174841 74 218 2.0 8.0 0.00 0.77 0.11 94 1013.9
20260904174501 74 203 2.0 4.0 0.00 0.77 0.11 94 1014.1
20260904174341 74 203 1.0 3.0 0.00 0.77 0.11 95 1014.0
20260904174002 74 203 1.0 4.0 0.00 0.77 0.11 96 1013.9
20260904173841 74 202 1.0 4.0 0.00 0.77 0.11 96 1013.8
20260904173502 74 201 2.0 4.0 0.00 0.77 0.11 96 1013.9
20260904173343 74 201 2.0 4.0 0.00 0.77 0.11 96 1014.0
20260904173002 73 200 2.0 4.0 0.00 0.77 0.11 97 1014.1
20260904172841 73 200 2.0 4.0 0.00 0.77 0.11 97 1014.2
20260904172502 73 201 2.0 5.0 0.00 0.77 0.11 97 1014.2
20260904172341 73 207 2.0 5.0 0.00 0.77 0.11 97 1014.3
20260904172002 73 220 2.0 5.0 0.00 0.77 0.11 97 1014.4
20260904171841 73 229 2.0 5.0 0.00 0.77 0.11 97 1014.5
20260904171526 73 238 2.0 4.0 0.00 0.80 0.11 97 1014.5
20260904171341 73 237 2.0 4.0 0.00 0.83 0.11 97 1014.6
20260904171002 72 236 2.0 4.0 0.00 0.83 0.11 97 1014.4
20260904170841 72 235 1.0 3.0 0.00 0.83 0.11 97 1014.4
20260904170523 72 234 1.0 3.0 0.00 0.83 0.11 97 1014.4
20260904170341 72 234 1.0 3.0 0.00 0.84 0.11 97 1014.4
20260904165841 72 234 1.0 3.0 0.00 0.96 0.11 97 1014.5
20260904165502 72 234 0.0 3.0 0.00 0.97 0.11 97 1014.5
20260904165341 72 234 0.0 2.0 0.00 0.97 0.11 97 1014.5
20260904165002 72 234 0.0 2.0 0.00 0.97 0.11 97 1014.5
20260904164841 71 234 0.0 2.0 0.00 0.97 0.11 97 1014.5
20260904164523 71 234 1.0 3.0 0.00 0.97 0.11 97 1014.7
20260904164341 71 234 1.0 3.0 0.00 0.97 0.11 97 1014.7
20260904164001 71 234 1.0 3.0 0.00 0.98 0.11 96 1014.8
20260904163840 71 234 1.0 3.0 0.00 0.98 0.11 97 1014.9
20260904163523 71 234 1.0 2.0 0.00 0.99 0.11 97 1015.0
20260904163340 71 234 1.0 2.0 0.00 0.99 0.11 96 1015.0
20260904163002 71 234 1.0 2.0 0.00 0.99 0.11 96 1014.9
20260904162840 71 234 0.0 2.0 0.00 0.99 0.11 96 1015.0
20260904162502 71 234 1.0 3.0 0.00 0.99 0.11 97 1015.0
20260904162340 71 234 1.0 3.0 0.00 0.99 0.11 96 1015.1
20260904162001 71 234 1.0 4.0 0.01 0.99 0.11 97 1015.3
20260904161840 71 234 1.0 4.0 0.01 0.99 0.11 97 1015.2
20260904161502 72 232 2.0 4.0 0.01 0.99 0.11 97 1015.3
20260904161340 71 229 1.0 4.0 0.01 0.99 0.11 97 1015.2
20260904161002 71 223 1.0 4.0 0.01 0.99 0.11 97 1015.3
20260904160840 71 217 1.0 4.0 0.01 0.99 0.11 97 1015.4
20260904160502 71 208 1.0 4.0 0.02 1.00 0.11 97 1015.3
20260904160340 71 211 1.0 4.0 0.02 1.00 0.11 97 1015.2
20260904160002 71 245 2.0 4.0 0.02 1.01 0.11 97 1015.1
20260904155840 71 271 1.0 4.0 0.03 1.02 0.11 97 1015.4
20260904155502 71 302 1.0 4.0 0.03 1.05 0.11 97 1015.5
20260904155340 71 306 1.0 4.0 0.03 1.11 0.11 97 1015.7
20260904155009 71 331 0.0 3.0 0.04 1.13 0.11 97 1015.7
20260904154840 71 331 1.0 4.0 0.04 1.13 0.11 97 1015.9
20260904154502 71 323 1.0 5.0 0.04 1.13 0.11 97 1015.9
20260904154340 71 320 1.0 5.0 0.04 1.13 0.11 97 1016.0
20260904154002 71 310 1.0 5.0 0.04 1.13 0.11 97 1016.1
20260904153840 71 275 1.0 5.0 0.05 1.13 0.11 97 1015.9
20260904153502 71 266 1.0 3.0 0.05 1.13 0.11 97 1015.8
20260904153340 71 274 1.0 3.0 0.05 1.13 0.11 97 1015.7
20260904153002 71 279 1.0 3.0 0.05 1.13 0.11 97 1015.7
20260904152839 70 290 1.0 3.0 0.05 1.13 0.11 97 1015.9
20260904152523 70 291 1.0 3.0 0.05 1.13 0.11 97 1016.1
20260904152339 70 291 0.0 2.0 0.05 1.13 0.11 97 1016.2
20260904152002 70 291 0.0 2.0 0.05 1.12 0.10 97 1016.2
20260904151839 70 291 0.0 2.0 0.05 1.12 0.10 96 1016.2
20260904151501 70 291 0.0 1.0 0.05 1.12 0.10 96 1016.4
20260904151339 70 291 0.0 1.0 0.05 1.12 0.10 97 1016.3
20260904151002 70 291 0.0 2.0 0.06 1.12 0.10 96 1016.2
20260904150839 70 291 0.0 2.0 0.06 1.12 0.10 96 1016.3
20260904150502 70 291 1.0 3.0 0.05 1.11 0.09 96 1016.5
20260904150339 70 291 1.0 4.0 0.05 1.11 0.09 96 1016.5
20260904150002 70 292 1.0 4.0 0.05 1.10 0.08 96 1016.5
20260904145839 70 292 1.0 4.0 0.05 1.10 0.08 96 1016.5
20260904145502 70 293 1.0 4.0 0.05 1.10 0.08 96 1016.4
20260904145339 70 294 1.0 3.0 0.06 1.10 0.08 96 1016.4
20260904145002 70 296 1.0 3.0 0.05 1.09 0.07 96 1016.4
20260904144839 70 296 1.0 3.0 0.05 1.09 0.07 96 1016.4
20260904144502 70 297 1.0 3.0 0.05 1.09 0.07 96 1016.4
20260904144339 70 297 1.0 3.0 0.06 1.09 0.07 96 1016.3
20260904144005 70 297 1.0 2.0 0.06 1.09 0.07 96 1016.3
20260904143839 70 297 1.0 2.0 0.05 1.08 0.06 96 1016.3
20260904143523 70 297 1.0 2.0 0.05 1.08 0.06 96 1016.3
20260904143339 70 297 1.0 2.0 0.05 1.08 0.06 96 1016.3
20260904143005 70 297 1.0 2.0 0.05 1.08 0.06 96 1016.4
20260904142838 70 297 1.0 2.0 0.05 1.08 0.06 96 1016.4
20260904142524 70 297 0.0 2.0 0.05 1.08 0.06 96 1016.5
20260904142338 70 297 0.0 2.0 0.05 1.08 0.06 96 1016.4
20260904142002 70 297 0.0 1.0 0.04 1.07 0.05 96 1016.3
20260904141838 70 297 0.0 2.0 0.04 1.07 0.05 96 1016.1
20260904141502 70 297 0.0 2.0 0.04 1.07 0.05 96 1016.0
20260904141338 70 297 0.0 2.0 0.04 1.07 0.05 96 1016.0
20260904141002 70 297 0.0 2.0 0.03 1.06 0.04 96 1016.0
20260904140838 70 297 1.0 2.0 0.03 1.06 0.04 96 1016.0
20260904140505 70 297 1.0 3.0 0.03 1.06 0.04 96 1015.9
20260904140338 70 297 1.0 3.0 0.03 1.06 0.04 96 1016.0
20260904140002 70 297 2.0 3.0 0.02 1.05 0.03 96 1016.0
20260904135838 70 292 2.0 3.0 0.02 1.05 0.03 96 1016.2
20260904135523 70 283 2.0 3.0 0.01 1.04 0.03 96 1016.3
20260904135338 70 263 1.0 3.0 0.01 1.04 0.02 96 1016.3
20260904135002 70 163 1.0 3.0 0.01 1.04 0.02 96 1016.4
20260904134838 70 147 1.0 2.0 0.01 1.04 0.02 96 1016.5
20260904134502 70 147 1.0 3.0 0.01 1.04 0.02 96 1016.4
20260904134338 70 147 1.0 3.0 0.00 1.03 0.01 96 1016.4
20260904134002 70 147 1.0 3.0 0.00 1.03 0.01 96 1016.3
20260904133838 70 146 0.0 3.0 0.00 1.03 0.01 96 1016.2
20260904133523 70 146 0.0 1.0 0.00 1.03 0.01 96 1016.0
20260904133338 70 146 0.0 1.0 0.00 1.03 0.01 96 1015.9
20260904133003 70 146 0.0 1.0 0.00 1.03 0.01 96 1015.9
20260904132838 70 146 0.0 1.0 0.01 1.03 0.01 96 1015.9
20260904132502 70 146 0.0 1.0 0.01 1.03 0.01 96 1015.9
20260904132338 70 146 0.0 2.0 0.01 1.03 0.01 96 1015.9
20260904132002 70 146 1.0 2.0 0.01 1.03 0.01 96 1016.1
20260904131838 70 146 1.0 2.0 0.01 1.03 0.01 96 1016.1
20260904131502 70 146 1.0 2.0 0.01 1.03 0.01 96 1016.1
20260904131337 70 146 1.0 2.0 0.01 1.03 0.01 96 1016.1
20260904131002 70 146 0.0 2.0 0.01 1.03 0.01 96 1016.0
20260904130837 70 146 0.0 2.0 0.01 1.03 0.01 96 1015.7
20260904130502 70 0 0.0 0.0 0.01 1.03 0.01 96 1015.7
20260904130337 70 146 0.0 2.0 0.01 1.03 0.01 96 1015.7
20260904130002 70 146 0.0 2.0 0.01 1.03 0.01 96 1015.7
20260904125837 70 146 1.0 2.0 0.01 1.03 0.01 96 1015.6
20260904125502 70 146 1.0 2.0 0.01 1.03 0.01 96 1015.5
20260904125337 70 146 1.0 2.0 0.01 1.03 0.01 96 1015.6
20260904125005 70 146 0.0 2.0 0.01 1.03 0.01 96 1015.5
20260904124837 70 146 0.0 2.0 0.01 1.03 0.01 96 1015.8
20260904124502 70 146 0.0 2.0 0.01 1.03 0.01 96 1015.7
20260904124337 70 146 0.0 2.0 0.01 1.03 0.01 96 1015.7
20260904124002 70 146 0.0 2.0 0.01 1.03 0.01 96 1015.6
20260904123837 70 146 0.0 1.0 0.01 1.03 0.01 96 1015.5
20260904123505 70 146 0.0 2.0 0.01 1.03 0.01 96 1015.5
20260904123337 70 146 1.0 2.0 0.01 1.03 0.01 96 1015.5
20260904123002 70 146 1.0 2.0 0.01 1.03 0.01 96 1015.5
20260904122837 70 146 1.0 2.0 0.00 1.02 0.00 96 1015.5
20260904122502 70 146 0.0 2.0 0.00 1.02 0.00 96 1015.3
20260904122337 70 146 0.0 1.0 0.00 1.02 0.00 96 1015.3
20260904122005 70 146 0.0 1.0 0.00 1.02 0.00 96 1015.4
20260904121837 70 146 0.0 2.0 0.00 1.02 0.00 96 1015.4
20260904121503 70 146 0.0 2.0 0.00 1.02 0.00 96 1015.7
20260904121337 70 146 1.0 2.0 0.00 1.02 0.00 96 1015.9
20260904121005 70 146 1.0 3.0 0.00 1.02 0.00 96 1015.9
20260904120837 70 146 1.0 3.0 0.00 1.02 0.00 96 1015.8
20260904120502 70 146 1.0 3.0 0.00 1.02 0.00 96 1015.7
20260904120336 70 146 1.0 3.0 0.00 1.02 0.00 96 1015.6
20260904120003 70 146 1.0 2.0 0.00 1.02 0.00 96 1015.4
20260904115836 70 146 1.0 2.0 0.00 1.02 0.00 96 1015.5
20260904115502 70 150 1.0 5.0 0.00 1.02 0.00 96 1015.5
20260904115336 70 156 2.0 5.0 0.00 1.02 0.00 96 1015.4
20260904115002 70 160 2.0 5.0 0.00 1.02 0.00 96 1015.2
20260904114836 70 162 2.0 5.0 0.00 1.02 0.00 96 1015.1
20260904114502 70 167 2.0 4.0 0.00 1.02 0.00 97 1015.1
20260904114336 70 167 1.0 4.0 0.00 1.02 0.00 96 1015.2
20260904114024 70 167 1.0 4.0 0.00 1.02 0.00 96 1015.1
20260904113836 70 167 1.0 4.0 0.00 1.02 0.00 96 1014.7
20260904113502 70 167 1.0 3.0 0.00 1.02 0.00 96 1015.1
20260904113336 70 167 1.0 4.0 0.00 1.02 0.00 96 1015.3
20260904113002 70 167 1.0 4.0 0.00 1.02 0.00 96 1015.4
20260904112836 70 167 1.0 5.0 0.00 1.02 0.00 96 1015.1
20260904112523 70 167 1.0 5.0 0.00 1.02 0.00 96 1015.0
20260904112336 70 167 1.0 5.0 0.00 1.02 0.00 97 1014.9
20260904112024 70 167 1.0 5.0 0.00 1.02 0.00 97 1014.9
20260904111836 70 167 1.0 4.0 0.00 1.02 0.00 97 1014.7
20260904111502 70 167 1.0 4.0 0.00 1.02 0.00 97 1014.7
20260904111336 70 167 1.0 4.0 0.00 1.02 0.00 97 1014.8
20260904111023 70 167 1.0 4.0 0.00 1.02 0.00 97 1014.7
20260904110836 70 167 1.0 4.0 0.00 1.02 0.00 97 1014.7
20260904110502 70 167 1.0 3.0 0.00 1.02 0.00 97 1014.9
20260904110336 70 167 1.0 4.0 0.00 1.02 0.00 97 1014.9
20260904110003 70 168 1.0 4.0 0.00 1.02 0.00 97 1014.9
20260904105836 70 166 2.0 6.0 0.00 1.02 0.00 97 1014.9
20260904105502 70 159 2.0 6.0 0.00 1.02 0.00 97 1014.8
20260904105336 70 153 2.0 6.0 0.00 1.02 0.00 97 1014.8
20260904105024 69 148 2.0 6.0 0.00 1.02 0.00 97 1014.9
20260904104836 69 138 1.0 3.0 0.00 1.02 0.00 97 1014.9
20260904104503 69 136 1.0 3.0 0.00 1.02 0.00 97 1014.9
20260904104335 69 127 1.0 3.0 0.00 1.02 0.00 97 1014.8
20260904104005 69 110 2.0 4.0 0.00 1.02 0.00 97 1014.6
20260904103835 69 100 2.0 4.0 0.00 1.02 0.00 97 1014.7
20260904103502 69 83 2.0 4.0 0.00 1.02 0.00 97 1014.6
20260904103335 69 78 2.0 4.0 0.00 1.02 0.00 97 1014.5
20260904103006 69 69 2.0 4.0 0.00 1.02 0.00 97 1014.4
20260904102835 69 61 2.0 3.0 0.00 1.02 0.00 97 1014.4
20260904102502 69 54 2.0 3.0 0.00 1.02 0.00 97 1014.2
20260904102335 69 49 2.0 3.0 0.00 1.02 0.00 96 1014.2
20260904102003 69 42 1.0 3.0 0.00 1.02 0.00 96 1014.0
20260904101835 69 38 1.0 3.0 0.00 1.02 0.00 96 1014.0
20260904101502 69 38 1.0 2.0 0.00 1.02 0.00 97 1014.1
20260904101335 69 38 1.0 2.0 0.00 1.02 0.00 97 1014.2
20260904101002 69 38 1.0 2.0 0.00 1.02 0.00 97 1014.2
20260904100835 69 38 1.0 3.0 0.00 1.02 0.00 97 1014.2
20260904100503 69 38 1.0 3.0 0.00 1.02 0.00 97 1014.0
20260904100335 69 38 1.0 3.0 0.00 1.02 0.00 97 1013.9
20260904100002 69 35 1.0 3.0 0.00 1.02 0.00 96 1013.9
20260904095835 69 34 1.0 3.0 0.00 1.02 0.00 96 1013.8
20260904095503 69 32 2.0 3.0 0.00 1.02 0.00 96 1013.7
20260904095335 69 31 2.0 3.0 0.00 1.02 0.00 96 1013.8
20260904095003 69 31 2.0 3.0 0.00 1.02 0.00 96 1013.7
20260904094835 69 31 1.0 3.0 0.00 1.02 0.00 96 1013.8
20260904094502 69 30 1.0 4.0 0.00 1.02 0.00 97 1013.9
20260904094335 69 30 1.0 4.0 0.00 1.02 0.00 97 1014.0
20260904094003 68 30 1.0 4.0 0.00 1.02 0.00 97 1014.1
20260904093835 68 30 1.0 4.0 0.00 1.02 0.00 97 1014.2
20260904093502 68 30 0.0 2.0 0.00 1.02 0.00 96 1014.3
20260904093335 68 30 0.0 2.0 0.00 1.02 0.00 96 1014.3
20260904093002 68 30 0.0 2.0 0.00 1.02 0.00 96 1014.3
20260904092835 68 30 1.0 2.0 0.00 1.02 0.00 96 1014.4
20260904092524 69 30 0.0 2.0 0.00 1.02 0.00 96 1014.6
20260904092335 69 30 1.0 2.0 0.00 1.02 0.00 96 1014.7
20260904092005 69 30 1.0 2.0 0.00 1.02 0.00 96 1014.7
20260904091835 69 30 0.0 1.0 0.00 1.02 0.00 96 1014.8
20260904091503 69 30 0.0 2.0 0.00 1.02 0.00 96 1014.7
20260904091334 69 30 0.0 2.0 0.00 1.02 0.00 96 1014.6
20260904091003 69 30 0.0 2.0 0.00 1.02 0.00 96 1014.7
20260904090834 69 30 1.0 3.0 0.00 1.02 0.00 96 1014.7
20260904090502 69 30 1.0 3.0 0.00 1.02 0.00 96 1014.7
20260904090334 69 30 1.0 3.0 0.00 1.03 0.00 97 1014.6
20260904090003 69 30 1.0 3.0 0.00 1.03 0.00 97 1014.7
20260904085834 69 30 1.0 3.0 0.00 1.03 0.00 97 1014.7
20260904085502 69 30 1.0 2.0 0.00 1.03 0.00 97 1014.8
20260904085334 68 30 0.0 2.0 0.00 1.03 0.00 97 1014.9
20260904085002 68 30 0.0 2.0 0.00 1.03 0.00 97 1014.7
20260904084834 68 30 0.0 2.0 0.00 1.03 0.00 97 1014.6
20260904084503 68 30 1.0 4.0 0.00 1.03 0.00 97 1014.6
20260904084334 68 30 0.0 4.0 0.00 1.03 0.00 97 1014.7
20260904084003 68 29 0.0 4.0 0.00 1.03 0.00 97 1014.8
20260904083834 68 29 0.0 4.0 0.00 1.03 0.00 97 1014.8
20260904083502 68 31 0.0 3.0 0.00 1.03 0.00 97 1014.9
20260904083334 68 31 0.0 3.0 0.00 1.03 0.00 96 1014.9
20260904083003 68 33 0.0 3.0 0.00 1.03 0.00 96 1015.0
20260904082834 68 34 0.0 3.0 0.00 1.03 0.00 96 1015.0
20260904082503 68 34 0.0 2.0 0.00 1.03 0.00 96 1015.0
20260904082334 68 34 0.0 2.0 0.00 1.03 0.00 96 1015.0
20260904082003 68 34 0.0 2.0 0.00 1.03 0.00 96 1015.0
20260904081834 68 34 0.0 1.0 0.00 1.03 0.00 96 1015.0
20260904081505 68 33 0.0 1.0 0.00 1.03 0.00 96 1014.8
20260904081334 68 33 0.0 2.0 0.00 1.03 0.00 96 1014.9
20260904081003 68 33 0.0 2.0 0.00 1.03 0.00 96 1014.7
20260904080834 68 37 1.0 4.0 0.00 1.03 0.00 96 1014.7
20260904080503 68 45 1.0 4.0 0.00 1.03 0.00 96 1014.7
20260904080334 68 47 1.0 4.0 0.00 1.03 0.00 96 1014.5
20260904080005 68 59 1.0 4.0 0.00 1.03 0.00 96 1014.5
20260904075834 68 74 0.0 2.0 0.00 1.03 0.00 96 1014.4
20260904075523 68 59 0.0 3.0 0.00 1.03 0.00 96 1014.5
20260904075334 68 21 0.0 3.0 0.00 1.04 0.00 96 1014.4
20260904075003 68 349 1.0 3.0 0.00 1.05 0.00 96 1014.2
20260904074833 68 336 1.0 4.0 0.00 1.06 0.00 96 1014.3
20260904074502 68 357 1.0 4.0 0.00 1.08 0.00 96 1014.4
20260904074333 68 10 1.0 4.0 0.00 1.09 0.00 96 1014.3
20260904074002 68 37 1.0 4.0 0.00 1.09 0.00 96 1014.5
20260904073833 68 83 1.0 3.0 0.00 1.10 0.00 96 1014.4
20260904073503 68 75 0.0 3.0 0.00 1.10 0.00 96 1014.3
20260904073333 68 50 1.0 3.0 0.00 1.10 0.00 96 1014.3
20260904073024 68 41 1.0 3.0 0.00 1.10 0.00 96 1014.4
20260904072833 68 5 0.0 2.0 0.00 1.10 0.00 96 1014.4
20260904072502 68 5 0.0 2.0 0.00 1.10 0.00 96 1014.3
20260904072333 68 18 1.0 5.0 0.00 1.10 0.00 96 1014.4
20260904072005 68 32 1.0 5.0 0.00 1.10 0.00 96 1014.5
20260904071833 68 35 1.0 5.0 0.00 1.11 0.00 96 1014.6
20260904071503 68 28 1.0 5.0 0.00 1.13 0.00 96 1014.6
20260904071333 69 2 1.0 4.0 0.00 1.14 0.00 96 1014.7
20260904071003 69 321 1.0 3.0 0.00 1.14 0.00 96 1014.7
20260904070833 69 307 1.0 4.0 0.00 1.15 0.00 96 1014.7
20260904070503 69 303 1.0 4.0 0.00 1.15 0.00 96 1014.7
20260904070333 69 301 0.0 4.0 0.00 1.15 0.00 96 1014.8
20260904070003 69 301 0.0 4.0 0.00 1.15 0.00 96 1014.9
20260904065833 69 0 0.0 0.0 0.00 1.15 0.00 96 1014.9
20260904065524 68 0 0.0 0.0 0.00 1.15 0.00 96 1015.0
20260904065333 69 0 0.0 0.0 0.00 1.15 0.00 96 1014.9
20260904065006 68 0 0.0 0.0 0.00 1.15 0.00 96 1014.9
20260904064833 68 0 0.0 0.0 0.00 1.15 0.00 96 1015.1
20260904064524 68 0 0.0 0.0 0.00 1.16 0.00 96 1015.1
20260904064333 68 0 0.0 0.0 0.00 1.18 0.00 96 1015.1
20260904064003 68 0 0.0 0.0 0.00 1.22 0.00 96 1015.2
20260904063833 68 0 0.0 0.0 0.00 1.24 0.00 96 1015.2
20260904063506 68 0 0.0 0.0 0.00 1.25 0.00 96 1015.2
20260904063332 68 0 0.0 0.0 0.00 1.25 0.00 96 1015.2
20260904063003 68 0 0.0 0.0 0.00 1.26 0.00 96 1015.0
20260904062832 68 0 0.0 0.0 0.00 1.26 0.00 96 1015.1
20260904062503 68 0 0.0 0.0 0.00 1.26 0.00 96 1015.0
20260904062332 68 0 0.0 0.0 0.00 1.26 0.00 96 1015.0
20260904062002 68 0 0.0 0.0 0.00 1.26 0.00 96 1015.0
20260904061832 68 0 0.0 0.0 0.00 1.26 0.00 96 1015.1
20260904061506 68 0 0.0 0.0 0.00 1.26 0.00 96 1015.1
20260904061332 68 0 0.0 0.0 0.00 1.26 0.00 96 1015.1
20260904061003 69 0 0.0 0.0 0.00 1.26 0.00 96 1015.1
20260904060832 69 0 0.0 0.0 0.00 1.26 0.00 96 1015.1
20260904060503 69 0 0.0 0.0 0.00 1.26 0.00 96 1015.2
20260904060332 69 0 0.0 0.0 0.00 1.26 0.00 96 1015.2
20260904060005 69 0 0.0 0.0 0.00 1.26 0.00 96 1015.1
20260904055832 69 0 0.0 0.0 0.00 1.26 0.00 96 1015.2
20260904055503 69 0 0.0 0.0 0.00 1.26 0.00 96 1015.2
20260904055332 69 0 0.0 0.0 0.00 1.26 0.00 96 1015.2
20260904055003 69 0 0.0 0.0 0.00 1.26 0.00 96 1015.2
20260904054832 69 0 0.0 0.0 0.00 1.26 0.00 96 1015.2
20260904054506 69 0 0.0 0.0 0.00 1.26 0.00 96 1015.2
20260904054332 69 0 0.0 0.0 0.00 1.26 0.00 96 1015.2
20260904054002 69 0 0.0 0.0 0.00 1.26 0.00 96 1015.2
20260904053834 69 0 0.0 0.0 0.00 1.26 0.00 96 1015.2